Year,Month,Day,Hour,Minute,Value (Times are PST for temperature in C)
2013,12,08,00,00,-8.60
2013,12,08,00,01,-8.60
2013,12,08,00,02,-8.60
2013,12,08,00,03,-8.60
2013,12,08,00,04,-8.60
2013,12,08,00,05,-8.60
2013,12,08,00,06,-8.60
2013,12,08,00,07,-8.70
2013,12,08,00,08,-8.70
2013,12,08,00,09,-8.70
2013,12,08,00,10,-8.70
2013,12,08,00,11,-8.60
2013,12,08,00,12,-8.60
2013,12,08,00,13,-8.60
2013,12,08,00,14,-8.60
2013,12,08,00,15,-8.70
2013,12,08,00,16,-8.70
2013,12,08,00,17,-8.70
2013,12,08,00,18,-8.70
2013,12,08,00,19,-8.70
2013,12,08,00,20,-8.70
2013,12,08,00,21,-8.70
2013,12,08,00,22,-8.70
2013,12,08,00,23,-8.70
2013,12,08,00,24,-8.70
2013,12,08,00,25,-8.70
2013,12,08,00,26,-8.70
2013,12,08,00,27,-8.70
2013,12,08,00,28,-8.70
2013,12,08,00,29,-8.70
2013,12,08,00,30,-8.70
2013,12,08,00,31,-8.70
2013,12,08,00,32,-8.70
2013,12,08,00,33,-8.70
2013,12,08,00,34,-8.80
2013,12,08,00,35,-8.80
2013,12,08,00,36,-8.80
2013,12,08,00,37,-8.80
2013,12,08,00,38,-8.80
2013,12,08,00,39,-8.80
2013,12,08,00,40,-8.80
2013,12,08,00,41,-8.80
2013,12,08,00,42,-8.80
2013,12,08,00,43,-8.80
2013,12,08,00,44,-8.80
2013,12,08,00,45,-8.80
2013,12,08,00,46,-8.80
2013,12,08,00,47,-8.70
2013,12,08,00,48,-8.70
2013,12,08,00,49,-8.70
2013,12,08,00,50,-8.70
2013,12,08,00,51,-8.70
2013,12,08,00,52,-8.70
2013,12,08,00,53,-8.70
2013,12,08,00,54,-8.70
2013,12,08,00,55,-8.70
2013,12,08,00,56,-8.70
2013,12,08,00,57,-8.60
2013,12,08,00,58,-8.60
2013,12,08,00,59,-8.60
2013,12,08,01,00,-8.60
2013,12,08,01,01,-8.60
2013,12,08,01,02,-8.60
2013,12,08,01,03,-8.60
2013,12,08,01,04,-8.60
2013,12,08,01,05,-8.60
2013,12,08,01,06,-8.50
2013,12,08,01,07,-8.50
2013,12,08,01,08,-8.50
2013,12,08,01,09,-8.50
2013,12,08,01,10,-8.40
2013,12,08,01,11,-8.40
2013,12,08,01,12,-8.40
2013,12,08,01,13,-8.40
2013,12,08,01,14,-8.40
2013,12,08,01,15,-8.40
2013,12,08,01,16,-8.30
2013,12,08,01,17,-8.30
2013,12,08,01,18,-8.30
2013,12,08,01,19,-8.30
2013,12,08,01,20,-8.30
2013,12,08,01,21,-8.30
2013,12,08,01,22,-8.30
2013,12,08,01,23,-8.30
2013,12,08,01,24,-8.30
2013,12,08,01,25,-8.30
2013,12,08,01,26,-8.30
2013,12,08,01,27,-8.20
2013,12,08,01,28,-8.20
2013,12,08,01,29,-8.20
2013,12,08,01,30,-8.20
2013,12,08,01,31,-8.20
2013,12,08,01,32,-8.20
2013,12,08,01,33,-8.10
2013,12,08,01,34,-8.10
2013,12,08,01,35,-8.10
2013,12,08,01,36,-8.10
2013,12,08,01,37,-8.10
2013,12,08,01,38,-8.10
2013,12,08,01,39,-8.10
2013,12,08,01,40,-8.10
2013,12,08,01,41,-8.10
2013,12,08,01,42,-8.10
2013,12,08,01,43,-8.10
2013,12,08,01,44,-8.10
2013,12,08,01,45,-8.00
2013,12,08,01,46,-8.00
2013,12,08,01,47,-8.00
2013,12,08,01,48,-8.00
2013,12,08,01,49,-8.00
2013,12,08,01,50,-7.90
2013,12,08,01,51,-7.90
2013,12,08,01,52,-7.90
2013,12,08,01,53,-7.90
2013,12,08,01,54,-7.90
2013,12,08,01,55,-7.90
2013,12,08,01,56,-7.90
2013,12,08,01,57,-7.90
2013,12,08,01,58,-7.90
2013,12,08,01,59,-7.90
2013,12,08,02,00,-7.90
2013,12,08,02,01,-7.90
2013,12,08,02,02,-7.90
2013,12,08,02,03,-7.90
2013,12,08,02,04,-7.90
2013,12,08,02,05,-7.90
2013,12,08,02,06,-7.90
2013,12,08,02,07,-7.80
2013,12,08,02,08,-7.80
2013,12,08,02,09,-7.80
2013,12,08,02,10,-7.80
2013,12,08,02,11,-7.80
2013,12,08,02,12,-7.80
2013,12,08,02,13,-7.80
2013,12,08,02,14,-7.80
2013,12,08,02,15,-7.80
2013,12,08,02,16,-7.80
2013,12,08,02,17,-7.80
2013,12,08,02,18,-7.80
2013,12,08,02,19,-7.80
2013,12,08,02,20,-7.80
2013,12,08,02,21,-7.80
2013,12,08,02,22,-7.80
2013,12,08,02,23,-7.80
2013,12,08,02,24,-7.80
2013,12,08,02,25,-7.80
2013,12,08,02,26,-7.80
2013,12,08,02,27,-7.80
2013,12,08,02,28,-7.80
2013,12,08,02,29,-7.80
2013,12,08,02,30,-7.80
2013,12,08,02,31,-7.80
2013,12,08,02,32,-7.80
2013,12,08,02,33,-7.90
2013,12,08,02,34,-7.90
2013,12,08,02,35,-7.90
2013,12,08,02,36,-7.90
2013,12,08,02,37,-7.80
2013,12,08,02,38,-7.80
2013,12,08,02,39,-7.80
2013,12,08,02,40,-7.80
2013,12,08,02,41,-7.80
2013,12,08,02,42,-7.80
2013,12,08,02,43,-7.80
2013,12,08,02,44,-7.80
2013,12,08,02,45,-7.80
2013,12,08,02,46,-7.70
2013,12,08,02,47,-7.70
2013,12,08,02,48,-7.70
2013,12,08,02,49,-7.70
2013,12,08,02,50,-7.70
2013,12,08,02,51,-7.70
2013,12,08,02,52,-7.70
2013,12,08,02,53,-7.70
2013,12,08,02,54,-7.70
2013,12,08,02,55,-7.70
2013,12,08,02,56,-7.60
2013,12,08,02,57,-7.60
2013,12,08,02,58,-7.60
2013,12,08,02,59,-7.60
2013,12,08,03,00,-7.60
2013,12,08,03,01,-7.60
2013,12,08,03,02,-7.60
2013,12,08,03,03,-7.60
2013,12,08,03,04,-7.60
2013,12,08,03,05,-7.60
2013,12,08,03,06,-7.60
2013,12,08,03,07,-7.60
2013,12,08,03,08,-7.60
2013,12,08,03,09,-7.60
2013,12,08,03,10,-7.50
2013,12,08,03,11,-7.50
2013,12,08,03,12,-7.50
2013,12,08,03,13,-7.50
2013,12,08,03,14,-7.40
2013,12,08,03,15,-7.40
2013,12,08,03,16,-7.40
2013,12,08,03,17,-7.40
2013,12,08,03,18,-7.40
2013,12,08,03,19,-7.30
2013,12,08,03,20,-7.30
2013,12,08,03,21,-7.30
2013,12,08,03,22,-7.30
2013,12,08,03,23,-7.30
2013,12,08,03,24,-7.30
2013,12,08,03,25,-7.30
2013,12,08,03,26,-7.30
2013,12,08,03,27,-7.30
2013,12,08,03,28,-7.30
2013,12,08,03,29,-7.30
2013,12,08,03,30,-7.30
2013,12,08,03,31,-7.30
2013,12,08,03,32,-7.20
2013,12,08,03,33,-7.20
2013,12,08,03,34,-7.20
2013,12,08,03,35,-7.20
2013,12,08,03,36,-7.20
2013,12,08,03,37,-7.20
2013,12,08,03,38,-7.20
2013,12,08,03,39,-7.20
2013,12,08,03,40,-7.20
2013,12,08,03,41,-7.20
2013,12,08,03,42,-7.10
2013,12,08,03,43,-7.10
2013,12,08,03,44,-7.10
2013,12,08,03,45,-7.10
2013,12,08,03,46,-7.10
2013,12,08,03,47,-7.10
2013,12,08,03,48,-7.00
2013,12,08,03,49,-7.00
2013,12,08,03,50,-7.00
2013,12,08,03,51,-7.00
2013,12,08,03,52,-6.90
2013,12,08,03,53,-6.90
2013,12,08,03,54,-6.90
2013,12,08,03,55,-6.90
2013,12,08,03,56,-6.90
2013,12,08,03,57,-6.90
2013,12,08,03,58,-6.90
2013,12,08,03,59,-6.80
2013,12,08,04,00,-6.80
2013,12,08,04,01,-6.80
2013,12,08,04,02,-6.80
2013,12,08,04,03,-6.80
2013,12,08,04,04,-6.80
2013,12,08,04,05,-6.80
2013,12,08,04,06,-6.80
2013,12,08,04,07,-6.80
2013,12,08,04,08,-6.80
2013,12,08,04,09,-6.80
2013,12,08,04,10,-6.80
2013,12,08,04,11,-6.80
2013,12,08,04,12,-6.80
2013,12,08,04,13,-6.80
2013,12,08,04,14,-6.80
2013,12,08,04,15,-6.80
2013,12,08,04,16,-6.80
2013,12,08,04,17,-6.80
2013,12,08,04,18,-6.80
2013,12,08,04,19,-6.80
2013,12,08,04,20,-6.70
2013,12,08,04,21,-6.70
2013,12,08,04,22,-6.70
2013,12,08,04,23,-6.70
2013,12,08,04,24,-6.70
2013,12,08,04,25,-6.70
2013,12,08,04,26,-6.70
2013,12,08,04,27,-6.70
2013,12,08,04,28,-6.70
2013,12,08,04,29,-6.70
2013,12,08,04,30,-6.70
2013,12,08,04,31,-6.70
2013,12,08,04,32,-6.60
2013,12,08,04,33,-6.60
2013,12,08,04,34,-6.60
2013,12,08,04,35,-6.60
2013,12,08,04,36,-6.60
2013,12,08,04,37,-6.60
2013,12,08,04,38,-6.60
2013,12,08,04,39,-6.60
2013,12,08,04,40,-6.50
2013,12,08,04,41,-6.50
2013,12,08,04,42,-6.50
2013,12,08,04,43,-6.50
2013,12,08,04,44,-6.40
2013,12,08,04,45,-6.40
2013,12,08,04,46,-6.40
2013,12,08,04,47,-6.40
2013,12,08,04,48,-6.40
2013,12,08,04,49,-6.40
2013,12,08,04,50,-6.40
2013,12,08,04,51,-6.40
2013,12,08,04,52,-6.40
2013,12,08,04,53,-6.40
2013,12,08,04,54,-6.40
2013,12,08,04,55,-6.30
2013,12,08,04,56,-6.30
2013,12,08,04,57,-6.30
2013,12,08,04,58,-6.30
2013,12,08,04,59,-6.30
2013,12,08,05,00,-6.30
2013,12,08,05,01,-6.30
2013,12,08,05,02,-6.30
2013,12,08,05,03,-6.30
2013,12,08,05,04,-6.30
2013,12,08,05,05,-6.30
2013,12,08,05,06,-6.30
2013,12,08,05,07,-6.30
2013,12,08,05,08,-6.30
2013,12,08,05,09,-6.30
2013,12,08,05,10,-6.30
2013,12,08,05,11,-6.20
2013,12,08,05,12,-6.20
2013,12,08,05,13,-6.20
2013,12,08,05,14,-6.20
2013,12,08,05,15,-6.20
2013,12,08,05,16,-6.20
2013,12,08,05,17,-6.20
2013,12,08,05,18,-6.20
2013,12,08,05,19,-6.20
2013,12,08,05,20,-6.10
2013,12,08,05,21,-6.10
2013,12,08,05,22,-6.10
2013,12,08,05,23,-6.10
2013,12,08,05,24,-6.10
2013,12,08,05,25,-6.10
2013,12,08,05,26,-6.10
2013,12,08,05,27,-6.10
2013,12,08,05,28,-6.10
2013,12,08,05,29,-6.10
2013,12,08,05,30,-6.10
2013,12,08,05,31,-6.10
2013,12,08,05,32,-6.00
2013,12,08,05,33,-6.00
2013,12,08,05,34,-6.00
2013,12,08,05,35,-6.00
2013,12,08,05,36,-6.00
2013,12,08,05,37,-6.00
2013,12,08,05,38,-6.00
2013,12,08,05,39,-6.00
2013,12,08,05,40,-6.00
2013,12,08,05,41,-6.00
2013,12,08,05,42,-6.00
2013,12,08,05,43,-6.00
2013,12,08,05,44,-6.00
2013,12,08,05,45,-6.00
2013,12,08,05,46,-6.00
2013,12,08,05,47,-6.00
2013,12,08,05,48,-6.00
2013,12,08,05,49,-6.00
2013,12,08,05,50,-6.00
2013,12,08,05,51,-6.00
2013,12,08,05,52,-5.90
2013,12,08,05,53,-5.90
2013,12,08,05,54,-5.90
2013,12,08,05,55,-5.90
2013,12,08,05,56,-5.90
2013,12,08,05,57,-5.90
2013,12,08,05,58,-5.90
2013,12,08,05,59,-5.90
2013,12,08,06,00,-5.90
2013,12,08,06,01,-5.90
2013,12,08,06,02,-5.90
2013,12,08,06,03,-5.90
2013,12,08,06,04,-5.90
2013,12,08,06,05,-5.90
2013,12,08,06,06,-5.90
2013,12,08,06,07,-5.90
2013,12,08,06,08,-5.90
2013,12,08,06,09,-5.90
2013,12,08,06,10,-5.90
2013,12,08,06,11,-5.90
2013,12,08,06,12,-5.90
2013,12,08,06,13,-5.90
2013,12,08,06,14,-5.90
2013,12,08,06,15,-5.80
2013,12,08,06,16,-5.80
2013,12,08,06,17,-5.80
2013,12,08,06,18,-5.80
2013,12,08,06,19,-5.80
2013,12,08,06,20,-5.80
2013,12,08,06,21,-5.80
2013,12,08,06,22,-5.80
2013,12,08,06,23,-5.80
2013,12,08,06,24,-5.80
2013,12,08,06,25,-5.80
2013,12,08,06,26,-5.80
2013,12,08,06,27,-5.80
2013,12,08,06,28,-5.80
2013,12,08,06,29,-5.80
2013,12,08,06,30,-5.80
2013,12,08,06,31,-5.70
2013,12,08,06,32,-5.70
2013,12,08,06,33,-5.70
2013,12,08,06,34,-5.70
2013,12,08,06,35,-5.70
2013,12,08,06,36,-5.70
2013,12,08,06,37,-5.70
2013,12,08,06,38,-5.70
2013,12,08,06,39,-5.70
2013,12,08,06,40,-5.70
2013,12,08,06,41,-5.70
2013,12,08,06,42,-5.70
2013,12,08,06,43,-5.60
2013,12,08,06,44,-5.60
2013,12,08,06,45,-5.60
2013,12,08,06,46,-5.60
2013,12,08,06,47,-5.60
2013,12,08,06,48,-5.60
2013,12,08,06,49,-5.50
2013,12,08,06,50,-5.50
2013,12,08,06,51,-5.50
2013,12,08,06,52,-5.50
2013,12,08,06,53,-5.50
2013,12,08,06,54,-5.50
2013,12,08,06,55,-5.50
2013,12,08,06,56,-5.50
2013,12,08,06,57,-5.50
2013,12,08,06,58,-5.50
2013,12,08,06,59,-5.40
2013,12,08,07,00,-5.50
2013,12,08,07,01,-5.40
2013,12,08,07,02,-5.40
2013,12,08,07,03,-5.40
2013,12,08,07,04,-5.40
2013,12,08,07,05,-5.40
2013,12,08,07,06,-5.40
2013,12,08,07,07,-5.40
2013,12,08,07,08,-5.40
2013,12,08,07,09,-5.40
2013,12,08,07,10,-5.40
2013,12,08,07,11,-5.40
2013,12,08,07,12,-5.40
2013,12,08,07,13,-5.40
2013,12,08,07,14,-5.30
2013,12,08,07,15,-5.30
2013,12,08,07,16,-5.30
2013,12,08,07,17,-5.30
2013,12,08,07,18,-5.30
2013,12,08,07,19,-5.30
2013,12,08,07,20,-5.30
2013,12,08,07,21,-5.30
2013,12,08,07,22,-5.30
2013,12,08,07,23,-5.30
2013,12,08,07,24,-5.20
2013,12,08,07,25,-5.20
2013,12,08,07,26,-5.20
2013,12,08,07,27,-5.20
2013,12,08,07,28,-5.20
2013,12,08,07,29,-5.20
2013,12,08,07,30,-5.20
2013,12,08,07,31,-5.10
2013,12,08,07,32,-5.10
2013,12,08,07,33,-5.10
2013,12,08,07,34,-5.10
2013,12,08,07,35,-5.10
2013,12,08,07,36,-5.10
2013,12,08,07,37,-5.10
2013,12,08,07,38,-5.10
2013,12,08,07,39,-5.10
2013,12,08,07,40,-5.10
2013,12,08,07,41,-5.10
2013,12,08,07,42,-5.10
2013,12,08,07,43,-5.10
2013,12,08,07,44,-5.10
2013,12,08,07,45,-5.10
2013,12,08,07,46,-5.10
2013,12,08,07,47,-5.10
2013,12,08,07,48,-5.10
2013,12,08,07,49,-5.10
2013,12,08,07,50,-5.10
2013,12,08,07,51,-5.10
2013,12,08,07,52,-5.10
2013,12,08,07,53,-5.10
2013,12,08,07,54,-5.10
2013,12,08,07,55,-5.10
2013,12,08,07,56,-5.10
2013,12,08,07,57,-5.10
2013,12,08,07,58,-5.00
2013,12,08,07,59,-5.00
2013,12,08,08,00,-5.00
2013,12,08,08,01,-5.00
2013,12,08,08,02,-5.00
2013,12,08,08,03,-5.00
2013,12,08,08,04,-5.00
2013,12,08,08,05,-5.00
2013,12,08,08,06,-4.90
2013,12,08,08,07,-4.90
2013,12,08,08,08,-4.90
2013,12,08,08,09,-4.90
2013,12,08,08,10,-4.90
2013,12,08,08,11,-4.90
2013,12,08,08,12,-4.90
2013,12,08,08,13,-4.90
2013,12,08,08,14,-4.90
2013,12,08,08,15,-4.90
2013,12,08,08,16,-4.90
2013,12,08,08,17,-4.90
2013,12,08,08,18,-4.80
2013,12,08,08,19,-4.80
2013,12,08,08,20,-4.80
2013,12,08,08,21,-4.80
2013,12,08,08,22,-4.80
2013,12,08,08,23,-4.80
2013,12,08,08,24,-4.80
2013,12,08,08,25,-4.80
2013,12,08,08,26,-4.70
2013,12,08,08,27,-4.70
2013,12,08,08,28,-4.70
2013,12,08,08,29,-4.70
2013,12,08,08,30,-4.70
2013,12,08,08,31,-4.70
2013,12,08,08,32,-4.70
2013,12,08,08,33,-4.70
2013,12,08,08,34,-4.70
2013,12,08,08,35,-4.70
2013,12,08,08,36,-4.70
2013,12,08,08,37,-4.70
2013,12,08,08,38,-4.60
2013,12,08,08,39,-4.60
2013,12,08,08,40,-4.60
2013,12,08,08,41,-4.60
2013,12,08,08,42,-4.60
2013,12,08,08,43,-4.60
2013,12,08,08,44,-4.50
2013,12,08,08,45,-4.50
2013,12,08,08,46,-4.50
2013,12,08,08,47,-4.50
2013,12,08,08,48,-4.50
2013,12,08,08,49,-4.50
2013,12,08,08,50,-4.40
2013,12,08,08,51,-4.40
2013,12,08,08,52,-4.40
2013,12,08,08,53,-4.40
2013,12,08,08,54,-4.40
2013,12,08,08,55,-4.40
2013,12,08,08,56,-4.40
2013,12,08,08,57,-4.40
2013,12,08,08,58,-4.40
2013,12,08,08,59,-4.40
2013,12,08,09,00,-4.40
2013,12,08,09,01,-4.40
2013,12,08,09,02,-4.40
2013,12,08,09,03,-4.40
2013,12,08,09,04,-4.40
2013,12,08,09,05,-4.40
2013,12,08,09,06,-4.30
2013,12,08,09,07,-4.30
2013,12,08,09,08,-4.30
2013,12,08,09,09,-4.30
2013,12,08,09,10,-4.30
2013,12,08,09,11,-4.20
2013,12,08,09,12,-4.20
2013,12,08,09,13,-4.20
2013,12,08,09,14,-4.20
2013,12,08,09,15,-4.20
2013,12,08,09,16,-4.20
2013,12,08,09,17,-4.10
2013,12,08,09,18,-4.10
2013,12,08,09,19,-4.10
2013,12,08,09,20,-4.10
2013,12,08,09,21,-4.10
2013,12,08,09,22,-4.00
2013,12,08,09,23,-4.00
2013,12,08,09,24,-4.00
2013,12,08,09,25,-4.00
2013,12,08,09,26,-3.90
2013,12,08,09,27,-3.90
2013,12,08,09,28,-3.90
2013,12,08,09,29,-3.80
2013,12,08,09,30,-3.80
2013,12,08,09,31,-3.80
2013,12,08,09,32,-3.80
2013,12,08,09,33,-3.70
2013,12,08,09,34,-3.70
2013,12,08,09,35,-3.60
2013,12,08,09,36,-3.60
2013,12,08,09,37,-3.60
2013,12,08,09,38,-3.50
2013,12,08,09,39,-3.40
2013,12,08,09,40,-3.40
2013,12,08,09,41,-3.30
2013,12,08,09,42,-3.20
2013,12,08,09,43,-3.20
2013,12,08,09,44,-3.20
2013,12,08,09,45,-3.20
2013,12,08,09,46,-3.20
2013,12,08,09,47,-3.20
2013,12,08,09,48,-3.20
2013,12,08,09,49,-3.10
2013,12,08,09,50,-3.10
2013,12,08,09,51,-3.10
2013,12,08,09,52,-3.10
2013,12,08,09,53,-3.10
2013,12,08,09,54,-3.00
2013,12,08,09,55,-3.00
2013,12,08,09,56,-3.00
2013,12,08,09,57,-2.90
2013,12,08,09,58,-2.90
2013,12,08,09,59,-2.80
2013,12,08,10,00,-2.80
2013,12,08,10,01,-2.80
2013,12,08,10,02,-2.80
2013,12,08,10,03,-2.70
2013,12,08,10,04,-2.70
2013,12,08,10,05,-2.70
2013,12,08,10,06,-2.70
2013,12,08,10,07,-2.70
2013,12,08,10,08,-2.70
2013,12,08,10,09,-2.60
2013,12,08,10,10,-2.60
2013,12,08,10,11,-2.60
2013,12,08,10,12,-2.60
2013,12,08,10,13,-2.60
2013,12,08,10,14,-2.50
2013,12,08,10,15,-2.50
2013,12,08,10,16,-2.50
2013,12,08,10,17,-2.50
2013,12,08,10,18,-2.40
2013,12,08,10,19,-2.40
2013,12,08,10,20,-2.40
2013,12,08,10,21,-2.40
2013,12,08,10,22,-2.30
2013,12,08,10,23,-2.30
2013,12,08,10,24,-2.30
2013,12,08,10,25,-2.30
2013,12,08,10,26,-2.20
2013,12,08,10,27,-2.20
2013,12,08,10,28,-2.10
2013,12,08,10,29,-2.10
2013,12,08,10,30,-2.00
2013,12,08,10,31,-1.90
2013,12,08,10,32,-1.80
2013,12,08,10,33,-1.80
2013,12,08,10,34,-1.70
2013,12,08,10,35,-1.70
2013,12,08,10,36,-1.70
2013,12,08,10,37,-1.60
2013,12,08,10,38,-1.60
2013,12,08,10,39,-1.60
2013,12,08,10,40,-1.60
2013,12,08,10,41,-1.60
2013,12,08,10,42,-1.60
2013,12,08,10,43,-1.50
2013,12,08,10,44,-1.50
2013,12,08,10,45,-1.50
2013,12,08,10,46,-1.50
2013,12,08,10,47,-1.40
2013,12,08,10,48,-1.40
2013,12,08,10,49,-1.40
2013,12,08,10,50,-1.30
2013,12,08,10,51,-1.30
2013,12,08,10,52,-1.30
2013,12,08,10,53,-1.30
2013,12,08,10,54,-1.30
2013,12,08,10,55,-1.30
2013,12,08,10,56,-1.30
2013,12,08,10,57,-1.30
2013,12,08,10,58,-1.30
2013,12,08,10,59,-1.30
2013,12,08,11,00,-1.30
2013,12,08,11,01,-1.40
2013,12,08,11,02,-1.40
2013,12,08,11,03,-1.40
2013,12,08,11,04,-1.40
2013,12,08,11,05,-1.50
2013,12,08,11,06,-1.50
2013,12,08,11,07,-1.60
2013,12,08,11,08,-1.60
2013,12,08,11,09,-1.60
2013,12,08,11,10,-1.70
2013,12,08,11,11,-1.70
2013,12,08,11,12,-1.70
2013,12,08,11,13,-1.70
2013,12,08,11,14,-1.70
2013,12,08,11,15,-1.80
2013,12,08,11,16,-1.80
2013,12,08,11,17,-1.80
2013,12,08,11,18,-1.80
2013,12,08,11,19,-1.80
2013,12,08,11,20,-1.80
2013,12,08,11,21,-1.80
2013,12,08,11,22,-1.80
2013,12,08,11,23,-1.80
2013,12,08,11,24,-1.80
2013,12,08,11,25,-1.80
2013,12,08,11,26,-1.80
2013,12,08,11,27,-1.80
2013,12,08,11,28,-1.80
2013,12,08,11,29,-1.80
2013,12,08,11,30,-1.70
2013,12,08,11,31,-1.70
2013,12,08,11,32,-1.70
2013,12,08,11,33,-1.70
2013,12,08,11,34,-1.70
2013,12,08,11,35,-1.70
2013,12,08,11,36,-1.70
2013,12,08,11,37,-1.70
2013,12,08,11,38,-1.70
2013,12,08,11,39,-1.70
2013,12,08,11,40,-1.60
2013,12,08,11,41,-1.60
2013,12,08,11,42,-1.60
2013,12,08,11,43,-1.60
2013,12,08,11,44,-1.60
2013,12,08,11,45,-1.60
2013,12,08,11,46,-1.50
2013,12,08,11,47,-1.50
2013,12,08,11,48,-1.40
2013,12,08,11,49,-1.40
2013,12,08,11,50,-1.40
2013,12,08,11,51,-1.40
2013,12,08,11,52,-1.40
2013,12,08,11,53,-1.30
2013,12,08,11,54,-1.30
2013,12,08,11,55,-1.30
2013,12,08,11,56,-1.20
2013,12,08,11,57,-1.20
2013,12,08,11,58,-1.20
2013,12,08,11,59,-1.20
2013,12,08,12,00,-1.20
2013,12,08,12,01,-1.10
2013,12,08,12,02,-1.10
2013,12,08,12,03,-1.10
2013,12,08,12,04,-1.10
2013,12,08,12,05,-1.10
2013,12,08,12,06,-1.10
2013,12,08,12,07,-1.10
2013,12,08,12,08,-1.10
2013,12,08,12,09,-1.10
2013,12,08,12,10,-1.10
2013,12,08,12,11,-1.10
2013,12,08,12,12,-1.00
2013,12,08,12,13,-1.00
2013,12,08,12,14,-1.00
2013,12,08,12,15,-1.00
2013,12,08,12,16,-1.00
2013,12,08,12,17,-1.00
2013,12,08,12,18,-1.00
2013,12,08,12,19,-1.00
2013,12,08,12,20,-1.00
2013,12,08,12,21,-1.00
2013,12,08,12,22,-1.00
2013,12,08,12,23,-1.00
2013,12,08,12,24,-1.00
2013,12,08,12,25,-1.00
2013,12,08,12,26,-1.00
2013,12,08,12,27,-1.00
2013,12,08,12,28,-1.00
2013,12,08,12,29,-1.00
2013,12,08,12,30,-1.00
2013,12,08,12,31,-1.00
2013,12,08,12,32,-1.00
2013,12,08,12,33,-1.00
2013,12,08,12,34,-1.00
2013,12,08,12,35,-1.00
2013,12,08,12,36,-1.00
2013,12,08,12,37,-1.00
2013,12,08,12,38,-0.90
2013,12,08,12,39,-0.90
2013,12,08,12,40,-0.90
2013,12,08,12,41,-0.90
2013,12,08,12,42,-0.90
2013,12,08,12,43,-0.90
2013,12,08,12,44,-0.90
2013,12,08,12,45,-1.00
2013,12,08,12,46,-1.00
2013,12,08,12,47,-1.00
2013,12,08,12,48,-1.00
2013,12,08,12,49,-1.00
2013,12,08,12,50,-1.10
2013,12,08,12,51,-1.10
2013,12,08,12,52,-1.10
2013,12,08,12,53,-1.10
2013,12,08,12,54,-1.10
2013,12,08,12,55,-1.10
2013,12,08,12,56,-1.10
2013,12,08,12,57,-1.10
2013,12,08,12,58,-1.10
2013,12,08,12,59,-1.20
2013,12,08,13,00,-1.20
2013,12,08,13,01,-1.20
2013,12,08,13,02,-1.20
2013,12,08,13,03,-1.20
2013,12,08,13,04,-1.20
2013,12,08,13,05,-1.20
2013,12,08,13,06,-1.20
2013,12,08,13,07,-1.20
2013,12,08,13,08,-1.30
2013,12,08,13,09,-1.30
2013,12,08,13,10,-1.30
2013,12,08,13,11,-1.30
2013,12,08,13,12,-1.30
2013,12,08,13,13,-1.30
2013,12,08,13,14,-1.30
2013,12,08,13,15,-1.30
2013,12,08,13,16,-1.20
2013,12,08,13,17,-1.20
2013,12,08,13,18,-1.20
2013,12,08,13,19,-1.20
2013,12,08,13,20,-1.20
2013,12,08,13,21,-1.20
2013,12,08,13,22,-1.20
2013,12,08,13,23,-1.20
2013,12,08,13,24,-1.20
2013,12,08,13,25,-1.10
2013,12,08,13,26,-1.10
2013,12,08,13,27,-1.10
2013,12,08,13,28,-1.10
2013,12,08,13,29,-1.10
2013,12,08,13,30,-1.00
2013,12,08,13,31,-1.00
2013,12,08,13,32,-1.00
2013,12,08,13,33,-0.90
2013,12,08,13,34,-0.90
2013,12,08,13,35,-0.90
2013,12,08,13,36,-0.80
2013,12,08,13,37,-0.80
2013,12,08,13,38,-0.80
2013,12,08,13,39,-0.80
2013,12,08,13,40,-0.90
2013,12,08,13,41,-0.90
2013,12,08,13,42,-0.90
2013,12,08,13,43,-0.90
2013,12,08,13,44,-0.90
2013,12,08,13,45,-1.00
2013,12,08,13,46,-1.00
2013,12,08,13,47,-1.10
2013,12,08,13,48,-1.10
2013,12,08,13,49,-1.10
2013,12,08,13,50,-1.10
2013,12,08,13,51,-1.10
2013,12,08,13,52,-1.20
2013,12,08,13,53,-1.20
2013,12,08,13,54,-1.20
2013,12,08,13,55,-1.20
2013,12,08,13,56,-1.30
2013,12,08,13,57,-1.30
2013,12,08,13,58,-1.30
2013,12,08,13,59,-1.30
2013,12,08,14,00,-1.30
2013,12,08,14,01,-1.40
2013,12,08,14,02,-1.40
2013,12,08,14,03,-1.40
2013,12,08,14,04,-1.40
2013,12,08,14,05,-1.40
2013,12,08,14,06,-1.40
2013,12,08,14,07,-1.50
2013,12,08,14,08,-1.50
2013,12,08,14,09,-1.50
2013,12,08,14,10,-1.50
2013,12,08,14,11,-1.50
2013,12,08,14,12,-1.50
2013,12,08,14,13,-1.60
2013,12,08,14,14,-1.60
2013,12,08,14,15,-1.60
2013,12,08,14,16,-1.60
2013,12,08,14,17,-1.60
2013,12,08,14,18,-1.60
2013,12,08,14,19,-1.60
2013,12,08,14,20,-1.60
2013,12,08,14,21,-1.60
2013,12,08,14,22,-1.60
2013,12,08,14,23,-1.60
2013,12,08,14,24,-1.50
2013,12,08,14,25,-1.50
2013,12,08,14,26,-1.50
2013,12,08,14,27,-1.50
2013,12,08,14,28,-1.50
2013,12,08,14,29,-1.40
2013,12,08,14,30,-1.40
2013,12,08,14,31,-1.40
2013,12,08,14,32,-1.40
2013,12,08,14,33,-1.40
2013,12,08,14,34,-1.40
2013,12,08,14,35,-1.40
2013,12,08,14,36,-1.40
2013,12,08,14,37,-1.40
2013,12,08,14,38,-1.50
2013,12,08,14,39,-1.50
2013,12,08,14,40,-1.50
2013,12,08,14,41,-1.60
2013,12,08,14,42,-1.60
2013,12,08,14,43,-1.60
2013,12,08,14,44,-1.60
2013,12,08,14,45,-1.70
2013,12,08,14,46,-1.70
2013,12,08,14,47,-1.70
2013,12,08,14,48,-1.70
2013,12,08,14,49,-1.80
2013,12,08,14,50,-1.80
2013,12,08,14,51,-1.80
2013,12,08,14,52,-1.80
2013,12,08,14,53,-1.80
2013,12,08,14,54,-1.80
2013,12,08,14,55,-1.80
2013,12,08,14,56,-1.90
2013,12,08,14,57,-1.90
2013,12,08,14,58,-1.90
2013,12,08,14,59,-1.90
2013,12,08,15,00,-1.90
2013,12,08,15,01,-1.90
2013,12,08,15,02,-1.90
2013,12,08,15,03,-2.00
2013,12,08,15,04,-2.00
2013,12,08,15,05,-2.00
2013,12,08,15,06,-2.00
2013,12,08,15,07,-2.00
2013,12,08,15,08,-2.10
2013,12,08,15,09,-2.10
2013,12,08,15,10,-2.10
2013,12,08,15,11,-2.10
2013,12,08,15,12,-2.10
2013,12,08,15,13,-2.10
2013,12,08,15,14,-2.10
2013,12,08,15,15,-2.10
2013,12,08,15,16,-2.10
2013,12,08,15,17,-2.20
2013,12,08,15,18,-2.20
2013,12,08,15,19,-2.20
2013,12,08,15,20,-2.20
2013,12,08,15,21,-2.20
2013,12,08,15,22,-2.20
2013,12,08,15,23,-2.20
2013,12,08,15,24,-2.20
2013,12,08,15,25,-2.20
2013,12,08,15,26,-2.20
2013,12,08,15,27,-2.30
2013,12,08,15,28,-2.30
2013,12,08,15,29,-2.30
2013,12,08,15,30,-2.30
2013,12,08,15,31,-2.30
2013,12,08,15,32,-2.30
2013,12,08,15,33,-2.30
2013,12,08,15,34,-2.30
2013,12,08,15,35,-2.30
2013,12,08,15,36,-2.30
2013,12,08,15,37,-2.30
2013,12,08,15,38,-2.40
2013,12,08,15,39,-2.40
2013,12,08,15,40,-2.40
2013,12,08,15,41,-2.40
2013,12,08,15,42,-2.40
2013,12,08,15,43,-2.40
2013,12,08,15,44,-2.40
2013,12,08,15,45,-2.40
2013,12,08,15,46,-2.40
2013,12,08,15,47,-2.40
2013,12,08,15,48,-2.40
2013,12,08,15,49,-2.40
2013,12,08,15,50,-2.50
2013,12,08,15,51,-2.50
2013,12,08,15,52,-2.50
2013,12,08,15,53,-2.50
2013,12,08,15,54,-2.60
2013,12,08,15,55,-2.60
2013,12,08,15,56,-2.60
2013,12,08,15,57,-2.60
2013,12,08,15,58,-2.60
2013,12,08,15,59,-2.60
2013,12,08,16,00,-2.60
2013,12,08,16,01,-2.60
2013,12,08,16,02,-2.60
2013,12,08,16,03,-2.70
2013,12,08,16,04,-2.70
2013,12,08,16,05,-2.70
2013,12,08,16,06,-2.70
2013,12,08,16,07,-2.70
2013,12,08,16,08,-2.70
2013,12,08,16,09,-2.70
2013,12,08,16,10,-2.70
2013,12,08,16,11,-2.70
2013,12,08,16,12,-2.70
2013,12,08,16,13,-2.70
2013,12,08,16,14,-2.70
2013,12,08,16,15,-2.70
2013,12,08,16,16,-2.80
2013,12,08,16,17,-2.80
2013,12,08,16,18,-2.80
2013,12,08,16,19,-2.80
2013,12,08,16,20,-2.80
2013,12,08,16,21,-2.80
2013,12,08,16,22,-2.80
2013,12,08,16,23,-2.80
2013,12,08,16,24,-2.80
2013,12,08,16,25,-2.80
2013,12,08,16,26,-2.80
2013,12,08,16,27,-2.80
2013,12,08,16,28,-2.90
2013,12,08,16,29,-2.90
2013,12,08,16,30,-2.90
2013,12,08,16,31,-2.90
2013,12,08,16,32,-2.90
2013,12,08,16,33,-2.90
2013,12,08,16,34,-2.90
2013,12,08,16,35,-2.90
2013,12,08,16,36,-3.00
2013,12,08,16,37,-3.00
2013,12,08,16,38,-3.00
2013,12,08,16,39,-3.00
2013,12,08,16,40,-3.10
2013,12,08,16,41,-3.10
2013,12,08,16,42,-3.10
2013,12,08,16,43,-3.10
2013,12,08,16,44,-3.10
2013,12,08,16,45,-3.10
2013,12,08,16,46,-3.10
2013,12,08,16,47,-3.10
2013,12,08,16,48,-3.20
2013,12,08,16,49,-3.20
2013,12,08,16,50,-3.20
2013,12,08,16,51,-3.20
2013,12,08,16,52,-3.20
2013,12,08,16,53,-3.20
2013,12,08,16,54,-3.20
2013,12,08,16,55,-3.20
2013,12,08,16,56,-3.20
2013,12,08,16,57,-3.20
2013,12,08,16,58,-3.20
2013,12,08,16,59,-3.20
2013,12,08,17,00,-3.20
2013,12,08,17,01,-3.20
2013,12,08,17,02,-3.20
2013,12,08,17,03,-3.20
2013,12,08,17,04,-3.20
2013,12,08,17,05,-3.20
2013,12,08,17,06,-3.20
2013,12,08,17,07,-3.20
2013,12,08,17,08,-3.20
2013,12,08,17,09,-3.20
2013,12,08,17,10,-3.20
2013,12,08,17,11,-3.20
2013,12,08,17,12,-3.30
2013,12,08,17,13,-3.30
2013,12,08,17,14,-3.30
2013,12,08,17,15,-3.30
2013,12,08,17,16,-3.30
2013,12,08,17,17,-3.30
2013,12,08,17,18,-3.30
2013,12,08,17,19,-3.30